Year,Month,Day,Hour,Minute,Value (Times are PST for temperature in C)
2019,05,04,00,00,10.90
2019,05,04,00,01,11.00
2019,05,04,00,02,11.00
2019,05,04,00,03,11.00
2019,05,04,00,04,10.90
2019,05,04,00,05,10.90
2019,05,04,00,06,10.90
2019,05,04,00,07,10.90
2019,05,04,00,08,10.90
2019,05,04,00,09,10.90
2019,05,04,00,10,10.90
2019,05,04,00,11,10.90
2019,05,04,00,12,10.90
2019,05,04,00,13,10.90
2019,05,04,00,14,10.90
2019,05,04,00,15,10.90
2019,05,04,00,16,10.90
2019,05,04,00,17,10.90
2019,05,04,00,18,10.90
2019,05,04,00,19,10.90
2019,05,04,00,20,10.90
2019,05,04,00,21,10.80
2019,05,04,00,22,10.80
2019,05,04,00,23,10.80
2019,05,04,00,24,10.80
2019,05,04,00,25,10.80
2019,05,04,00,26,10.80
2019,05,04,00,27,10.80
2019,05,04,00,28,10.80
2019,05,04,00,29,10.80
2019,05,04,00,30,10.80
2019,05,04,00,31,10.80
2019,05,04,00,32,10.80
2019,05,04,00,33,10.80
2019,05,04,00,34,10.70
2019,05,04,00,35,10.70
2019,05,04,00,36,10.70
2019,05,04,00,37,10.70
2019,05,04,00,38,10.70
2019,05,04,00,39,10.60
2019,05,04,00,40,10.60
2019,05,04,00,41,10.60
2019,05,04,00,42,10.50
2019,05,04,00,43,10.50
2019,05,04,00,44,10.40
2019,05,04,00,45,10.40
2019,05,04,00,46,10.30
2019,05,04,00,47,10.30
2019,05,04,00,48,10.30
2019,05,04,00,49,10.20
2019,05,04,00,50,10.20
2019,05,04,00,51,10.20
2019,05,04,00,52,10.20
2019,05,04,00,53,10.10
2019,05,04,00,54,10.10
2019,05,04,00,55,10.10
2019,05,04,00,56,10.10
2019,05,04,00,57,10.00
2019,05,04,00,58,10.00
2019,05,04,00,59,10.00
2019,05,04,01,00,10.00
2019,05,04,01,01,9.90
2019,05,04,01,02,9.90
2019,05,04,01,03,9.90
2019,05,04,01,04,9.80
2019,05,04,01,05,9.80
2019,05,04,01,06,9.80
2019,05,04,01,07,9.80
2019,05,04,01,08,9.70
2019,05,04,01,09,9.70
2019,05,04,01,10,9.70
2019,05,04,01,11,9.60
2019,05,04,01,12,9.60
2019,05,04,01,13,9.50
2019,05,04,01,14,9.50
2019,05,04,01,15,9.40
2019,05,04,01,16,9.40
2019,05,04,01,17,9.40
2019,05,04,01,18,9.40
2019,05,04,01,19,9.30
2019,05,04,01,20,9.30
2019,05,04,01,21,9.30
2019,05,04,01,22,9.30
2019,05,04,01,23,9.30
2019,05,04,01,24,9.30
2019,05,04,01,25,9.30
2019,05,04,01,26,9.20
2019,05,04,01,27,9.20
2019,05,04,01,28,9.20
2019,05,04,01,29,9.20
2019,05,04,01,30,9.20
2019,05,04,01,31,9.20
2019,05,04,01,32,9.10
2019,05,04,01,33,9.10
2019,05,04,01,34,9.10
2019,05,04,01,35,9.10
2019,05,04,01,36,9.10
2019,05,04,01,37,9.00
2019,05,04,01,38,9.00
2019,05,04,01,39,9.00
2019,05,04,01,40,9.00
2019,05,04,01,41,9.00
2019,05,04,01,42,8.90
2019,05,04,01,43,8.90
2019,05,04,01,44,8.90
2019,05,04,01,45,8.90
2019,05,04,01,46,8.80
2019,05,04,01,47,8.80
2019,05,04,01,48,8.80
2019,05,04,01,49,8.80
2019,05,04,01,50,8.80
2019,05,04,01,51,8.70
2019,05,04,01,52,8.70
2019,05,04,01,53,8.70
2019,05,04,01,54,8.70
2019,05,04,01,55,8.70
2019,05,04,01,56,8.70
2019,05,04,01,57,8.70
2019,05,04,01,58,8.70
2019,05,04,01,59,8.60
2019,05,04,02,00,8.60
2019,05,04,02,01,8.50
2019,05,04,02,02,8.50
2019,05,04,02,03,8.40
2019,05,04,02,04,8.40
2019,05,04,02,05,8.40
2019,05,04,02,06,8.40
2019,05,04,02,07,8.30
2019,05,04,02,08,8.30
2019,05,04,02,09,8.30
2019,05,04,02,10,8.30
2019,05,04,02,11,8.30
2019,05,04,02,12,8.30
2019,05,04,02,13,8.30
2019,05,04,02,14,8.20
2019,05,04,02,15,8.20
2019,05,04,02,16,8.20
2019,05,04,02,17,8.20
2019,05,04,02,18,8.20
2019,05,04,02,19,8.20
2019,05,04,02,20,8.20
2019,05,04,02,21,8.20
2019,05,04,02,22,8.20
2019,05,04,02,23,8.10
2019,05,04,02,24,8.10
2019,05,04,02,25,8.10
2019,05,04,02,26,8.10
2019,05,04,02,27,8.10
2019,05,04,02,28,8.10
2019,05,04,02,29,8.00
2019,05,04,02,30,8.10
2019,05,04,02,31,8.10
2019,05,04,02,32,8.10
2019,05,04,02,33,8.10
2019,05,04,02,34,8.10
2019,05,04,02,35,8.10
2019,05,04,02,36,8.10
2019,05,04,02,37,8.10
2019,05,04,02,38,8.10
2019,05,04,02,39,8.20
2019,05,04,02,40,8.30
2019,05,04,02,41,8.30
2019,05,04,02,42,8.30
2019,05,04,02,43,8.40
2019,05,04,02,44,8.40
2019,05,04,02,45,8.40
2019,05,04,02,46,8.50
2019,05,04,02,47,8.50
2019,05,04,02,48,8.60
2019,05,04,02,49,8.60
2019,05,04,02,50,8.60
2019,05,04,02,51,8.70
2019,05,04,02,52,8.80
2019,05,04,02,53,8.80
2019,05,04,02,54,8.80
2019,05,04,02,55,8.90
2019,05,04,02,56,8.90
2019,05,04,02,57,8.90
2019,05,04,02,58,8.90
2019,05,04,02,59,8.90
2019,05,04,03,00,8.90
2019,05,04,03,01,8.90
2019,05,04,03,02,8.90
2019,05,04,03,03,8.90
2019,05,04,03,04,8.90
2019,05,04,03,05,8.90
2019,05,04,03,06,8.90
2019,05,04,03,07,8.90
2019,05,04,03,08,8.90
2019,05,04,03,09,8.90
2019,05,04,03,10,8.90
2019,05,04,03,11,8.80
2019,05,04,03,12,8.80
2019,05,04,03,13,8.70
2019,05,04,03,14,8.70
2019,05,04,03,15,8.70
2019,05,04,03,16,8.70
2019,05,04,03,17,8.70
2019,05,04,03,18,8.70
2019,05,04,03,19,8.60
2019,05,04,03,20,8.60
2019,05,04,03,21,8.60
2019,05,04,03,22,8.60
2019,05,04,03,23,8.60
2019,05,04,03,24,8.60
2019,05,04,03,25,8.60
2019,05,04,03,26,8.60
2019,05,04,03,27,8.50
2019,05,04,03,28,8.50
2019,05,04,03,29,8.50
2019,05,04,03,30,8.50
2019,05,04,03,31,8.50
2019,05,04,03,32,8.50
2019,05,04,03,33,8.50
2019,05,04,03,34,8.60
2019,05,04,03,35,8.60
2019,05,04,03,36,8.60
2019,05,04,03,37,8.60
2019,05,04,03,38,8.60
2019,05,04,03,39,8.60
2019,05,04,03,40,8.50
2019,05,04,03,41,8.50
2019,05,04,03,42,8.40
2019,05,04,03,43,8.30
2019,05,04,03,44,8.30
2019,05,04,03,45,8.20
2019,05,04,03,46,8.10
2019,05,04,03,47,8.10
2019,05,04,03,48,8.00
2019,05,04,03,49,8.00
2019,05,04,03,50,7.90
2019,05,04,03,51,7.90
2019,05,04,03,52,7.90
2019,05,04,03,53,7.90
2019,05,04,03,54,7.80
2019,05,04,03,55,7.80
2019,05,04,03,56,7.90
2019,05,04,03,57,7.90
2019,05,04,03,58,7.90
2019,05,04,03,59,7.90
2019,05,04,04,00,7.90
2019,05,04,04,01,7.90
2019,05,04,04,02,7.90
2019,05,04,04,03,8.00
2019,05,04,04,04,8.00
2019,05,04,04,05,8.00
2019,05,04,04,06,8.10
2019,05,04,04,07,8.10
2019,05,04,04,08,8.10
2019,05,04,04,09,8.20
2019,05,04,04,10,8.20
2019,05,04,04,11,8.10
2019,05,04,04,12,8.10
2019,05,04,04,13,8.00
2019,05,04,04,14,8.00
2019,05,04,04,15,7.90
2019,05,04,04,16,7.90
2019,05,04,04,17,7.80
2019,05,04,04,18,7.80
2019,05,04,04,19,7.80
2019,05,04,04,20,7.70
2019,05,04,04,21,7.70
2019,05,04,04,22,7.70
2019,05,04,04,23,7.70
2019,05,04,04,24,7.70
2019,05,04,04,25,7.70
2019,05,04,04,26,7.70
2019,05,04,04,27,7.70
2019,05,04,04,28,7.60
2019,05,04,04,29,7.60
2019,05,04,04,30,7.60
2019,05,04,04,31,7.60
2019,05,04,04,32,7.60
2019,05,04,04,33,7.60
2019,05,04,04,34,7.50
2019,05,04,04,35,7.50
2019,05,04,04,36,7.50
2019,05,04,04,37,7.50
2019,05,04,04,38,7.50
2019,05,04,04,39,7.50
2019,05,04,04,40,7.50
2019,05,04,04,41,7.40
2019,05,04,04,42,7.40
2019,05,04,04,43,7.40
2019,05,04,04,44,7.40
2019,05,04,04,45,7.30
2019,05,04,04,46,7.30
2019,05,04,04,47,7.40
2019,05,04,04,48,7.40
2019,05,04,04,49,7.40
2019,05,04,04,50,7.40
2019,05,04,04,51,7.40
2019,05,04,04,52,7.40
2019,05,04,04,53,7.40
2019,05,04,04,54,7.40
2019,05,04,04,55,7.40
2019,05,04,04,56,7.40
2019,05,04,04,57,7.40
2019,05,04,04,58,7.40
2019,05,04,04,59,7.40
2019,05,04,05,00,7.40
2019,05,04,05,01,7.50
2019,05,04,05,02,7.50
2019,05,04,05,03,7.50
2019,05,04,05,04,7.60
2019,05,04,05,05,7.60
2019,05,04,05,06,7.60
2019,05,04,05,07,7.60
2019,05,04,05,08,7.50
2019,05,04,05,09,7.50
2019,05,04,05,10,7.50
2019,05,04,05,11,7.50
2019,05,04,05,12,7.50
2019,05,04,05,13,7.40
2019,05,04,05,14,7.40
2019,05,04,05,15,7.40
2019,05,04,05,16,7.30
2019,05,04,05,17,7.20
2019,05,04,05,18,7.20
2019,05,04,05,19,7.10
2019,05,04,05,20,7.10
2019,05,04,05,21,7.00
2019,05,04,05,22,7.00
2019,05,04,05,23,6.90
2019,05,04,05,24,6.80
2019,05,04,05,25,6.80
2019,05,04,05,26,6.80
2019,05,04,05,27,6.80
2019,05,04,05,28,6.80
2019,05,04,05,29,6.80
2019,05,04,05,30,6.80
2019,05,04,05,31,6.80
2019,05,04,05,32,6.80
2019,05,04,05,33,6.80
2019,05,04,05,34,6.80
2019,05,04,05,35,6.80
2019,05,04,05,36,6.80
2019,05,04,05,37,6.70
2019,05,04,05,38,6.80
2019,05,04,05,39,6.80
2019,05,04,05,40,6.70
2019,05,04,05,41,6.80
2019,05,04,05,42,6.80
2019,05,04,05,43,6.70
2019,05,04,05,44,6.70
2019,05,04,05,45,6.70
2019,05,04,05,46,6.70
2019,05,04,05,47,6.70
2019,05,04,05,48,6.70
2019,05,04,05,49,6.70
2019,05,04,05,50,6.70
2019,05,04,05,51,6.70
2019,05,04,05,52,6.70
2019,05,04,05,53,6.70
2019,05,04,05,54,6.70
2019,05,04,05,55,6.70
2019,05,04,05,56,6.70
2019,05,04,05,57,6.70
2019,05,04,05,58,6.70
2019,05,04,05,59,6.60
2019,05,04,06,00,6.60
2019,05,04,06,01,6.60
2019,05,04,06,02,6.60
2019,05,04,06,03,6.60
2019,05,04,06,04,6.50
2019,05,04,06,05,6.50
2019,05,04,06,06,6.50
2019,05,04,06,07,6.50
2019,05,04,06,08,6.50
2019,05,04,06,09,6.50
2019,05,04,06,10,6.60
2019,05,04,06,11,6.60
2019,05,04,06,12,6.70
2019,05,04,06,13,6.70
2019,05,04,06,14,6.70
2019,05,04,06,15,6.70
2019,05,04,06,16,6.70
2019,05,04,06,17,6.70
2019,05,04,06,18,6.70
2019,05,04,06,19,6.70
2019,05,04,06,20,6.70
2019,05,04,06,21,6.70
2019,05,04,06,22,6.70
2019,05,04,06,23,6.70
2019,05,04,06,24,6.70
2019,05,04,06,25,6.70
2019,05,04,06,26,6.80
2019,05,04,06,27,6.80
2019,05,04,06,28,6.80
2019,05,04,06,29,6.80
2019,05,04,06,30,6.90
2019,05,04,06,31,7.00
2019,05,04,06,32,7.00
2019,05,04,06,33,7.10
2019,05,04,06,34,7.20
2019,05,04,06,35,7.20
2019,05,04,06,36,7.30
2019,05,04,06,37,7.30
2019,05,04,06,38,7.40
2019,05,04,06,39,7.40
2019,05,04,06,40,7.50
2019,05,04,06,41,7.60
2019,05,04,06,42,7.70
2019,05,04,06,43,7.80
2019,05,04,06,44,7.80
2019,05,04,06,45,7.80
2019,05,04,06,46,7.90
2019,05,04,06,47,7.90
2019,05,04,06,48,8.00
2019,05,04,06,49,8.10
2019,05,04,06,50,8.10
2019,05,04,06,51,8.20
2019,05,04,06,52,8.30
2019,05,04,06,53,8.30
2019,05,04,06,54,8.40
2019,05,04,06,55,8.40
2019,05,04,06,56,8.40
2019,05,04,06,57,8.50
2019,05,04,06,58,8.50
2019,05,04,06,59,8.60
2019,05,04,07,00,8.60
2019,05,04,07,01,8.60
2019,05,04,07,02,8.60
2019,05,04,07,03,8.70
2019,05,04,07,04,8.70
2019,05,04,07,05,8.70
2019,05,04,07,06,8.70
2019,05,04,07,07,8.70
2019,05,04,07,08,8.70
2019,05,04,07,09,8.70
2019,05,04,07,10,8.70
2019,05,04,07,11,8.80
2019,05,04,07,12,8.80
2019,05,04,07,13,8.80
2019,05,04,07,14,8.80
2019,05,04,07,15,8.80
2019,05,04,07,16,8.80
2019,05,04,07,17,8.80
2019,05,04,07,18,8.80
2019,05,04,07,19,8.80
2019,05,04,07,20,8.90
2019,05,04,07,21,9.00
2019,05,04,07,22,9.00
2019,05,04,07,23,9.00
2019,05,04,07,24,9.00
2019,05,04,07,25,9.00
2019,05,04,07,26,9.10
2019,05,04,07,27,9.10
2019,05,04,07,28,9.10
2019,05,04,07,29,9.10
2019,05,04,07,30,9.20
2019,05,04,07,31,9.20
2019,05,04,07,32,9.30
2019,05,04,07,33,9.30
2019,05,04,07,34,9.40
2019,05,04,07,35,9.40
2019,05,04,07,36,9.50
2019,05,04,07,37,9.50
2019,05,04,07,38,9.50
2019,05,04,07,39,9.60
2019,05,04,07,40,9.60
2019,05,04,07,41,9.70
2019,05,04,07,42,9.70
2019,05,04,07,43,9.70
2019,05,04,07,44,9.70
2019,05,04,07,45,9.80
2019,05,04,07,46,9.80
2019,05,04,07,47,9.90
2019,05,04,07,48,9.90
2019,05,04,07,49,9.90
2019,05,04,07,50,10.00
2019,05,04,07,51,10.00
2019,05,04,07,52,10.00
2019,05,04,07,53,10.10
2019,05,04,07,54,10.20
2019,05,04,07,55,10.30
2019,05,04,07,56,10.30
2019,05,04,07,57,10.30
2019,05,04,07,58,10.30
2019,05,04,07,59,10.40
2019,05,04,08,00,10.40
2019,05,04,08,01,10.40
2019,05,04,08,02,10.50
2019,05,04,08,03,10.50
2019,05,04,08,04,10.60
2019,05,04,08,05,10.60
2019,05,04,08,06,10.60
2019,05,04,08,07,10.70
2019,05,04,08,08,10.80
2019,05,04,08,09,10.80
2019,05,04,08,10,10.90
2019,05,04,08,11,10.90
2019,05,04,08,12,11.00
2019,05,04,08,13,11.10
2019,05,04,08,14,11.10
2019,05,04,08,15,11.20
2019,05,04,08,16,11.20
2019,05,04,08,17,11.30
2019,05,04,08,18,11.30
2019,05,04,08,19,11.30
2019,05,04,08,20,11.40
2019,05,04,08,21,11.60
2019,05,04,08,22,11.70
2019,05,04,08,23,11.70
2019,05,04,08,24,11.70
2019,05,04,08,25,11.70
2019,05,04,08,26,11.70
2019,05,04,08,27,11.70
2019,05,04,08,28,11.70
2019,05,04,08,29,11.70
2019,05,04,08,30,11.70
2019,05,04,08,31,11.80
2019,05,04,08,32,11.90
2019,05,04,08,33,11.90
2019,05,04,08,34,11.90
2019,05,04,08,35,11.90
2019,05,04,08,36,11.90
2019,05,04,08,37,11.90
2019,05,04,08,38,11.90
2019,05,04,08,39,11.90
2019,05,04,08,40,12.00
2019,05,04,08,41,12.00
2019,05,04,08,42,12.00
2019,05,04,08,43,12.10
2019,05,04,08,44,12.10
2019,05,04,08,45,12.10
2019,05,04,08,46,12.20
2019,05,04,08,47,12.20
2019,05,04,08,48,12.20
2019,05,04,08,49,12.20
2019,05,04,08,50,12.20
2019,05,04,08,51,12.20
2019,05,04,08,52,12.20
2019,05,04,08,53,12.30
2019,05,04,08,54,12.30
2019,05,04,08,55,12.30
2019,05,04,08,56,12.30
2019,05,04,08,57,12.30
2019,05,04,08,58,12.40
2019,05,04,08,59,12.40
2019,05,04,09,00,12.40
2019,05,04,09,01,12.40
2019,05,04,09,02,12.40
2019,05,04,09,03,12.40
2019,05,04,09,04,12.50
2019,05,04,09,05,12.50
2019,05,04,09,06,12.50
2019,05,04,09,07,12.60
2019,05,04,09,08,12.60
2019,05,04,09,09,12.50
2019,05,04,09,10,12.50
2019,05,04,09,11,12.50
2019,05,04,09,12,12.60
2019,05,04,09,13,12.70
2019,05,04,09,14,12.80
2019,05,04,09,15,12.90
2019,05,04,09,16,13.00
2019,05,04,09,17,13.10
2019,05,04,09,18,13.10
2019,05,04,09,19,13.10
2019,05,04,09,20,13.00
2019,05,04,09,21,13.00
2019,05,04,09,22,13.00
2019,05,04,09,23,13.00
2019,05,04,09,24,13.00
2019,05,04,09,25,13.10
2019,05,04,09,26,13.10
2019,05,04,09,27,13.00
2019,05,04,09,28,13.00
2019,05,04,09,29,13.00
2019,05,04,09,30,12.90
2019,05,04,09,31,12.90
2019,05,04,09,32,12.90
2019,05,04,09,33,12.90
2019,05,04,09,34,12.90
2019,05,04,09,35,12.90
2019,05,04,09,36,12.90
2019,05,04,09,37,12.90
2019,05,04,09,38,13.00
2019,05,04,09,39,13.20
2019,05,04,09,40,13.30
2019,05,04,09,41,13.30
2019,05,04,09,42,13.40
2019,05,04,09,43,13.50
2019,05,04,09,44,13.60
2019,05,04,09,45,13.60
2019,05,04,09,46,13.70
2019,05,04,09,47,13.60
2019,05,04,09,48,13.60
2019,05,04,09,49,13.70
2019,05,04,09,50,13.80
2019,05,04,09,51,13.90
2019,05,04,09,52,14.00
2019,05,04,09,53,14.00
2019,05,04,09,54,14.00
2019,05,04,09,55,14.00
2019,05,04,09,56,14.10
2019,05,04,09,57,14.20
2019,05,04,09,58,14.30
2019,05,04,09,59,14.30
2019,05,04,10,00,14.40
2019,05,04,10,01,14.40
2019,05,04,10,02,14.40
2019,05,04,10,03,14.40
2019,05,04,10,04,14.50
2019,05,04,10,05,14.50
2019,05,04,10,06,14.40
2019,05,04,10,07,14.50
2019,05,04,10,08,14.60
2019,05,04,10,09,14.60
2019,05,04,10,10,14.50
2019,05,04,10,11,14.30
2019,05,04,10,12,14.20
2019,05,04,10,13,14.10
2019,05,04,10,14,14.10
2019,05,04,10,15,14.10
2019,05,04,10,16,14.10
2019,05,04,10,17,14.20
2019,05,04,10,18,14.40
2019,05,04,10,19,14.50
2019,05,04,10,20,14.60
2019,05,04,10,21,14.70
2019,05,04,10,22,14.80
2019,05,04,10,23,14.70
2019,05,04,10,24,14.40
2019,05,04,10,25,14.20
2019,05,04,10,26,14.10
2019,05,04,10,27,14.10
2019,05,04,10,28,14.10
2019,05,04,10,29,14.20
2019,05,04,10,30,14.40
2019,05,04,10,31,14.50
2019,05,04,10,32,14.70
2019,05,04,10,33,14.70
2019,05,04,10,34,14.70
2019,05,04,10,35,14.70
2019,05,04,10,36,14.80
2019,05,04,10,37,14.80
2019,05,04,10,38,14.80
2019,05,04,10,39,14.80
2019,05,04,10,40,14.70
2019,05,04,10,41,14.70
2019,05,04,10,42,14.60
2019,05,04,10,43,14.60
2019,05,04,10,44,14.60
2019,05,04,10,45,14.70
2019,05,04,10,46,14.70
2019,05,04,10,47,14.90
2019,05,04,10,48,15.00
2019,05,04,10,49,15.10
2019,05,04,10,50,15.10
2019,05,04,10,51,15.00
2019,05,04,10,52,14.90
2019,05,04,10,53,14.70
2019,05,04,10,54,14.50
2019,05,04,10,55,14.40
2019,05,04,10,56,14.40
2019,05,04,10,57,14.40
2019,05,04,10,58,14.50
2019,05,04,10,59,14.60
2019,05,04,11,00,14.60
2019,05,04,11,01,14.60
2019,05,04,11,02,14.40
2019,05,04,11,03,14.40
2019,05,04,11,04,14.30
2019,05,04,11,05,14.30
2019,05,04,11,06,14.30
2019,05,04,11,07,14.40
2019,05,04,11,08,14.60
2019,05,04,11,09,14.70
2019,05,04,11,10,14.90
2019,05,04,11,11,14.90
2019,05,04,11,12,14.80
2019,05,04,11,13,14.60
2019,05,04,11,14,14.60
2019,05,04,11,15,14.70
2019,05,04,11,16,14.80
2019,05,04,11,17,14.70
2019,05,04,11,18,14.60
2019,05,04,11,19,14.50
2019,05,04,11,20,14.40
2019,05,04,11,21,14.30
2019,05,04,11,22,14.20
2019,05,04,11,23,14.20
2019,05,04,11,24,14.30
2019,05,04,11,25,14.60
2019,05,04,11,26,14.70
2019,05,04,11,27,14.80
2019,05,04,11,28,14.70
2019,05,04,11,29,14.70
2019,05,04,11,30,14.80
2019,05,04,11,31,14.90
2019,05,04,11,32,15.10
2019,05,04,11,33,15.10
2019,05,04,11,34,15.10
2019,05,04,11,35,15.10
2019,05,04,11,36,15.20
2019,05,04,11,37,15.10
2019,05,04,11,38,15.10
2019,05,04,11,39,15.00
2019,05,04,11,40,15.00
2019,05,04,11,41,15.10
2019,05,04,11,42,15.10
2019,05,04,11,43,15.10
2019,05,04,11,44,15.00
2019,05,04,11,45,15.00
2019,05,04,11,46,15.00
2019,05,04,11,47,15.10
2019,05,04,11,48,15.10
2019,05,04,11,49,15.20
2019,05,04,11,50,15.30
2019,05,04,11,51,15.40
2019,05,04,11,52,15.50
2019,05,04,11,53,15.40
2019,05,04,11,54,15.20
2019,05,04,11,55,15.00
2019,05,04,11,56,14.90
2019,05,04,11,57,14.90
2019,05,04,11,58,14.90
2019,05,04,11,59,15.10
2019,05,04,12,00,15.20
2019,05,04,12,01,15.30
2019,05,04,12,02,15.20
2019,05,04,12,03,15.10
2019,05,04,12,04,15.10
2019,05,04,12,05,15.10
2019,05,04,12,06,15.30
2019,05,04,12,07,15.30
2019,05,04,12,08,15.30
2019,05,04,12,09,15.30
2019,05,04,12,10,15.20
2019,05,04,12,11,15.30
2019,05,04,12,12,15.40
2019,05,04,12,13,15.40
2019,05,04,12,14,15.30
2019,05,04,12,15,15.30
2019,05,04,12,16,15.20
2019,05,04,12,17,15.00
2019,05,04,12,18,14.90
2019,05,04,12,19,14.90
2019,05,04,12,20,14.90
2019,05,04,12,21,14.90
2019,05,04,12,22,14.90
2019,05,04,12,23,14.90
2019,05,04,12,24,14.80
2019,05,04,12,25,14.60
2019,05,04,12,26,14.50
2019,05,04,12,27,14.50
2019,05,04,12,28,14.50
2019,05,04,12,29,14.60
2019,05,04,12,30,14.60
2019,05,04,12,31,14.60
2019,05,04,12,32,14.60
2019,05,04,12,33,14.50
2019,05,04,12,34,14.50
2019,05,04,12,35,14.50
2019,05,04,12,36,14.60
2019,05,04,12,37,14.60
2019,05,04,12,38,14.70
2019,05,04,12,39,14.90
2019,05,04,12,40,14.90
2019,05,04,12,41,14.80
2019,05,04,12,42,14.80
2019,05,04,12,43,14.70
2019,05,04,12,44,14.80
2019,05,04,12,45,14.90
2019,05,04,12,46,15.10
2019,05,04,12,47,15.20
2019,05,04,12,48,15.40
2019,05,04,12,49,15.40
2019,05,04,12,50,15.40
2019,05,04,12,51,15.50
2019,05,04,12,52,15.60
2019,05,04,12,53,15.70
2019,05,04,12,54,15.80
2019,05,04,12,55,15.70
2019,05,04,12,56,15.70
2019,05,04,12,57,15.70
2019,05,04,12,58,15.80
2019,05,04,12,59,15.80
2019,05,04,13,00,15.80
2019,05,04,13,01,15.90
2019,05,04,13,02,15.70
2019,05,04,13,03,15.60
2019,05,04,13,04,15.70
2019,05,04,13,05,15.80
2019,05,04,13,06,16.00
2019,05,04,13,07,16.10
2019,05,04,13,08,16.20
2019,05,04,13,09,16.30
2019,05,04,13,10,16.30
2019,05,04,13,11,16.30
2019,05,04,13,12,16.30
2019,05,04,13,13,16.30
2019,05,04,13,14,16.40
2019,05,04,13,15,16.50
2019,05,04,13,16,16.60
2019,05,04,13,17,16.60
2019,05,04,13,18,16.60
2019,05,04,13,19,16.50
2019,05,04,13,20,16.40
2019,05,04,13,21,16.40
2019,05,04,13,22,16.40
2019,05,04,13,23,16.40
2019,05,04,13,24,16.50
2019,05,04,13,25,16.50
2019,05,04,13,26,16.60
2019,05,04,13,27,16.60
2019,05,04,13,28,16.60
2019,05,04,13,29,16.60
2019,05,04,13,30,16.60
2019,05,04,13,31,16.70
2019,05,04,13,32,16.80
2019,05,04,13,33,16.80
2019,05,04,13,34,16.80
2019,05,04,13,35,16.80
2019,05,04,13,36,16.80
2019,05,04,13,37,16.80
2019,05,04,13,38,16.70
2019,05,04,13,39,16.70
2019,05,04,13,40,16.90
2019,05,04,13,41,17.00
2019,05,04,13,42,17.20
2019,05,04,13,43,17.10
2019,05,04,13,44,17.00
2019,05,04,13,45,16.90
2019,05,04,13,46,16.90
2019,05,04,13,47,16.80
2019,05,04,13,48,16.70
2019,05,04,13,49,16.50
2019,05,04,13,50,16.40
2019,05,04,13,51,16.30
2019,05,04,13,52,16.10
2019,05,04,13,53,16.20
2019,05,04,13,54,16.30
2019,05,04,13,55,16.50
2019,05,04,13,56,16.60
2019,05,04,13,57,16.70
2019,05,04,13,58,16.80
2019,05,04,13,59,16.90
2019,05,04,14,00,17.10
2019,05,04,14,01,17.30
2019,05,04,14,02,17.40
2019,05,04,14,03,17.60
2019,05,04,14,04,17.60
2019,05,04,14,05,17.60
2019,05,04,14,06,17.60
2019,05,04,14,07,17.60
2019,05,04,14,08,17.60
2019,05,04,14,09,17.50
2019,05,04,14,10,17.40
2019,05,04,14,11,17.40
2019,05,04,14,12,17.30
2019,05,04,14,13,17.30
2019,05,04,14,14,17.30
2019,05,04,14,15,17.20
2019,05,04,14,16,17.20
2019,05,04,14,17,17.20
2019,05,04,14,18,17.20
2019,05,04,14,19,17.20
2019,05,04,14,20,17.20
2019,05,04,14,21,17.30
2019,05,04,14,22,17.30
2019,05,04,14,23,17.40
2019,05,04,14,24,17.50
2019,05,04,14,25,17.60
2019,05,04,14,26,17.60
2019,05,04,14,27,17.60
2019,05,04,14,28,17.50
2019,05,04,14,29,17.30
2019,05,04,14,30,17.30
2019,05,04,14,31,17.20
2019,05,04,14,32,17.30
2019,05,04,14,33,17.30
2019,05,04,14,34,17.30
2019,05,04,14,35,17.40
2019,05,04,14,36,17.40
2019,05,04,14,37,17.40
2019,05,04,14,38,17.40
2019,05,04,14,39,17.20
2019,05,04,14,40,17.20
2019,05,04,14,41,17.10
2019,05,04,14,42,17.10
2019,05,04,14,43,17.00
2019,05,04,14,44,16.90
2019,05,04,14,45,16.80
2019,05,04,14,46,16.80
2019,05,04,14,47,16.70
2019,05,04,14,48,16.80
2019,05,04,14,49,16.80
2019,05,04,14,50,16.90
2019,05,04,14,51,16.90
2019,05,04,14,52,17.00
2019,05,04,14,53,17.00
2019,05,04,14,54,17.10
2019,05,04,14,55,17.20
2019,05,04,14,56,17.20
2019,05,04,14,57,17.20
2019,05,04,14,58,17.10
2019,05,04,14,59,16.90
2019,05,04,15,00,16.80
2019,05,04,15,01,16.90
2019,05,04,15,02,17.00
2019,05,04,15,03,16.90
2019,05,04,15,04,16.80
2019,05,04,15,05,16.80
2019,05,04,15,06,16.80
2019,05,04,15,07,16.80
2019,05,04,15,08,16.90
2019,05,04,15,09,17.00
2019,05,04,15,10,17.00
2019,05,04,15,11,17.00
2019,05,04,15,12,17.00
2019,05,04,15,13,16.90
2019,05,04,15,14,16.80
2019,05,04,15,15,16.70
2019,05,04,15,16,16.70
2019,05,04,15,17,16.70
2019,05,04,15,18,16.70
2019,05,04,15,19,16.70
2019,05,04,15,20,16.70
2019,05,04,15,21,16.70
2019,05,04,15,22,16.50
2019,05,04,15,23,16.40
2019,05,04,15,24,16.40
2019,05,04,15,25,16.30
2019,05,04,15,26,16.20
2019,05,04,15,27,16.20
2019,05,04,15,28,16.20
2019,05,04,15,29,16.10
2019,05,04,15,30,15.90
2019,05,04,15,31,15.80
2019,05,04,15,32,15.70
2019,05,04,15,33,15.60
2019,05,04,15,34,15.70
2019,05,04,15,35,15.80
2019,05,04,15,36,15.80
2019,05,04,15,37,15.70
2019,05,04,15,38,15.70
2019,05,04,15,39,15.70
2019,05,04,15,40,15.60
2019,05,04,15,41,15.50
2019,05,04,15,42,15.60
2019,05,04,15,43,15.60
2019,05,04,15,44,15.70
2019,05,04,15,45,15.70
2019,05,04,15,46,15.80
2019,05,04,15,47,15.90
2019,05,04,15,48,15.90
2019,05,04,15,49,15.90
2019,05,04,15,50,16.00
2019,05,04,15,51,16.00
2019,05,04,15,52,16.10
2019,05,04,15,53,16.10
2019,05,04,15,54,16.20
2019,05,04,15,55,16.30
2019,05,04,15,56,16.20
2019,05,04,15,57,16.20
2019,05,04,15,58,16.30
2019,05,04,15,59,16.30
2019,05,04,16,00,16.40
2019,05,04,16,01,16.40
2019,05,04,16,02,16.30
2019,05,04,16,03,16.40
2019,05,04,16,04,16.40
2019,05,04,16,05,16.40
2019,05,04,16,06,16.40
2019,05,04,16,07,16.30
2019,05,04,16,08,16.30
2019,05,04,16,09,16.20
2019,05,04,16,10,16.20
2019,05,04,16,11,16.20
2019,05,04,16,12,16.30
2019,05,04,16,13,16.30
2019,05,04,16,14,16.30
2019,05,04,16,15,16.30
2019,05,04,16,16,16.30
2019,05,04,16,17,16.30
2019,05,04,16,18,16.30
2019,05,04,16,19,16.30
2019,05,04,16,20,16.30
2019,05,04,16,21,16.40
2019,05,04,16,22,16.50
2019,05,04,16,23,16.60
2019,05,04,16,24,16.60
2019,05,04,16,25,16.60
2019,05,04,16,26,16.60
2019,05,04,16,27,16.50
2019,05,04,16,28,16.50
2019,05,04,16,29,16.50
2019,05,04,16,30,16.50
2019,05,04,16,31,16.60
2019,05,04,16,32,16.60
2019,05,04,16,33,16.50
2019,05,04,16,34,16.40
2019,05,04,16,35,16.30
2019,05,04,16,36,16.20
2019,05,04,16,37,16.00
2019,05,04,16,38,16.00
2019,05,04,16,39,15.90
2019,05,04,16,40,15.90
2019,05,04,16,41,16.00
2019,05,04,16,42,16.10
2019,05,04,16,43,16.20
2019,05,04,16,44,16.30
2019,05,04,16,45,16.30
2019,05,04,16,46,16.30
2019,05,04,16,47,16.30
2019,05,04,16,48,16.30
2019,05,04,16,49,16.30
2019,05,04,16,50,16.30
2019,05,04,16,51,16.30
2019,05,04,16,52,16.30
2019,05,04,16,53,16.40
2019,05,04,16,54,16.50
2019,05,04,16,55,16.40
2019,05,04,16,56,16.40
2019,05,04,16,57,16.40
2019,05,04,16,58,16.40
2019,05,04,16,59,16.50
2019,05,04,17,00,16.50
2019,05,04,17,01,16.70
2019,05,04,17,02,16.70
2019,05,04,17,03,16.70
2019,05,04,17,04,16.60
2019,05,04,17,05,16.60
2019,05,04,17,06,16.60
2019,05,04,17,07,16.70
2019,05,04,17,08,16.70
2019,05,04,17,09,16.70
2019,05,04,17,10,16.70
2019,05,04,17,11,16.60
2019,05,04,17,12,16.60
2019,05,04,17,13,16.50
2019,05,04,17,14,16.50
2019,05,04,17,15,16.60
2019,05,04,17,16,16.60
2019,05,04,17,17,16.70
2019,05,04,17,18,16.70
2019,05,04,17,19,16.80
2019,05,04,17,20,16.90
2019,05,04,17,21,17.00
2019,05,04,17,22,17.10
2019,05,04,17,23,17.20
2019,05,04,17,24,17.10
2019,05,04,17,25,17.00
2019,05,04,17,26,16.90
2019,05,04,17,27,16.90
2019,05,04,17,28,16.90
2019,05,04,17,29,17.00
2019,05,04,17,30,17.10
2019,05,04,17,31,17.10
2019,05,04,17,32,17.10
2019,05,04,17,33,17.00
2019,05,04,17,34,17.00
2019,05,04,17,35,17.00
2019,05,04,17,36,17.00
2019,05,04,17,37,17.00